Torna al catalogo

DELTA 1 DEB

AttivoUNKNOWN
NORAD 12529·DEBRIS·🇺🇸 United States

Lanciato Jul 29, 1976 da Vandenberg Space Force Base

Loading…

Prossimi Passaggi (prossime 24 ore)

TLE

AggiornatoSource: Space-Track

Epoca: Sep 14, 2026, 05:19 UTC

1 12529U 76077DJ  26257.22186488 -.00011631  00000-0 -19271+0 0  9990
2 12529 103.4971   7.5396 0738770  22.9387 340.2898 11.24893927841978

Traccia DELTA 1 DEB in tempo reale con AllMySat

Download on the App Store